Location: Chavenne
(46.6022°N, 3.2951°E)
Time: 12:25:36
(UTC+00:00)

Cosmos 1340 Rocket - Pass Details

Date: 09 April 2020
Orbit: 529 x 559 km, 81.2° (Epoch: 06 June)

Event Time Altitude Azimuth Distance (km) Brightness Sun altitude
Rises 19:03:05 0° 168° (SSE) 2,726 6.1 -6.8°
Reaches altitude 10° 19:05:23 10° 159° (SSE) 1,833 5.1 -7.1°
Maximum altitude 19:09:03 35° 94° (E) 912 3.5 -7.7°
Drops below altitude 10° 19:12:44 10° 28° (NNE) 1,833 5.4 -8.3°
Sets 19:15:01 0° 20° (NNE) 2,726 6.4 -8.7°
